Starlink 11357

operational
NORAD ID: 61541 Int'l Des: 2024-184 Owner: SPXS Country: US Constellation: starlink
LEOCIRCULAR

关于 Starlink 11357

正在加载描述...

实时位置

正在加载3D地球...

即将过境

高度历史

Altitude vs Time

uPlot chart will show altitude changes over time

两行轨道根数

1 61541U 24184K 25351.24155848 -.00004286 00000-0 -30503-4 0 9996
2 61541 53.1598 283.0137 0001406 75.8172 284.3003 15.69731013 67464
Epoch: Dec 17, 2025 • Age: 17 hours

当前状态

高度 365.1 km
速度 7.69 km/s
星下点 -18.92°S, 159.59°W
发射日期 Oct 15, 2024
运行时间 1.1 years
类型 internet

技术详情

分类 Payload
质量 960.00 kg
干质量 910.00 kg
总质量 960.00 kg
长度 0.30 m
直径 4.10 m
跨度 29.00 m
形状 Box + pan
制造商 SPXS
平台类型 Starlink V2MD
阶段状态 In Orbit
所有者/国家 SPXS/US

大型星座

Loading constellations...